SCP
-0 0 -0 -0 -1 -1 -2 -2 -1 -1 -1 -0 -1 -1 -0 -0 -0 -0 -0 -0 0 0 -0 0 0 0 0 0 0 0 0 0 0 0 0 0 0 0 0 0 0 0 0
-0 -0 -0 -0 -0 -1 -1 -1 -1 -1 -1 -0 -0 -0 -0 -0 -0 0 0 -0 -0 -0 -0 -0 -0 -0 0 0 0 0 0 0 0 0 0 0 0 0 0 0 0 0 0
-0 0 0 -0 -0 -1 -1 -1 -1 -0 -0 -0 -0 -0 0 0 0 0 0 0 -0 -0 -0 -0 -0 -0 -0 -0 0 0 0 0 0 0 0 0 0 0 0 0 0 0 0
0 -0 -0 -0 -0 -0 -0 -1 -0 -0 -0 -0 0 0 0 0 0 0 0 0 -0 -0 -0 -0 -0 -0 -0 0 0 0 0 0 0 0 0 0 0 0 0 0 0 0 0
0 0 0 0 0 -0 -0 -0 -0 -0 -0 -0 0 0 0 0 0 0 0 0 -0 -0 -0 -0 -0 -0 -0 0 0 0 0 0 0 0 0 0 0 0 0 0 0 0 0
0 0 0 1 0 0 -0 -0 -0 -0 -0 0 0 0 0 0 0 0 0 0 0 -0 -0 -0 -0 -0 -0 0 0 0 0 0 0 0 0 0 0 0 0 0 0 0 0
0 1 1 1 1 0 0 0 -0 -0 0 0 0 0 0 0 0 0 0 0 0 0 -0 -0 -0 -0 0 0 0 0 0 0 0 0 0 0 0 0 0 0 1 0 0
1 1 1 1 1 0 0 0 0 -0 -0 0 0 0 0 0 -0 0 0 0 -0 -0 -0 -0 0 0 0 0 0 0 0 0 0 0 0 0 0 0 0 1 1 0 0
1 2 1 1 1 1 1 0 0 0 -0 -0 0 0 -0 -0 -0 -0 -0 -0 -0 -0 -0 -0 0 0 0 0 0 0 0 0 0 0 0 0 0 0 0 1 1 0 0
1 2 2 1 2 2 1 1 0 0 0 0 0 -0 -0 -0 -0 -0 -0 -0 -0 -0 -0 0 0 0 0 0 0 0 0 0 0 0 0 0 0 0 0 1 1 1 1
1 1 2 1 2 2 2 1 1 0 0 0 0 -0 -0 -0 -0 -0 -0 -0 -0 -0 0 0 0 0 0 0 0 0 0 0 0 0 0 0 0 0 0 1 1 1 1
1 1 2 2 2 2 2 2 2 1 1 1 0 0 0 -0 -0 -0 -0 -0 -0 -0 -0 0 0 0 0 0 0 0 0 0 0 0 0 0 0 0 0 1 1 1 1
1 1 1 1 2 2 2 3 2 2 1 1 0 0 0 0 -0 -0 -0 -0 -0 -0 -0 0 0 0 0 0 0 0 0 0 0 0 0 0 0 0 0 1 1 1 0
1 1 1 2 1 2 3 3 3 2 2 1 1 0 0 0 0 -0 -0 -0 -0 -0 0 0 0 0 0 0 0 0 0 0 0 0 0 0 0 0 0 1 1 1 0
2 1 1 1 2 2 3 3 3 2 2 1 1 1 0 0 0 0 0 0 0 0 0 0 0 0 0 0 0 0 0 0 0 0 0 0 0 0 1 1 1 1 0
1 1 1 1 1 1 2 2 2 3 2 1 1 1 0 0 0 0 0 0 0 0 0 0 0 0 0 0 0 0 0 0 0 0 0 0 0 0 1 1 1 1 1
1 1 1 0 1 1 2 2 2 2 2 2 1 1 1 0 0 0 0 0 0 0 0 0 0 0 0 0 0 0 0 0 0 0 0 0 0 0 1 1 1 1 1
0 1 1 1 0 0 1 2 1 1 2 1 1 1 1 1 0 0 0 0 0 0 0 0 0 0 0 0 0 0 0 0 0 0 0 0 0 0 0 1 1 1 1
0 0 1 1 1 0 1 2 2 1 1 1 1 1 1 1 1 0 0 0 0 0 0 0 0 0 0 0 0 0 0 0 0 0 0 0 0 0 0 0 1 1 1
0 0 1 2 1 1 3 3 3 2 1 1 0 1 1 1 1 1 1 0 0 1 0 0 0 0 0 0 0 0 0 0 0 0 0 0 0 0 0 0 0 1 1
0 0 0 2 2 4 4 4 3 3 3 2 1 1 1 1 2 1 2 2 1 1 1 1 1 0 0 0 0 0 0 0 0 0 0 0 0 0 0 0 0 0 1
0 0 0 0 1 3 5 4 4 3 3 2 2 1 2 2 2 3 3 2 1 1 1 1 1 0 0 0 0 0 0 0 0 0 0 0 0 0 0 0 0 0 0
0 0 0 0 0 0 4 5 4 3 4 2 2 2 2 2 3 4 3 4 3 2 1 1 1 1 1 0 0 0 0 0 0 0 0 0 0 0 0 0 0 0 0
0 0 0 0 0 0 1 4 5 5 5 3 2 2 2 2 2 3 4 5 2 3 2 1 1 1 0 1 0 0 0 0 0 -0 0 0 0 0 0 0 0 0 0
0 0 0 0 0 0 0 0 1 2 1 1 1 2 2 1 1 2 2 1 4 5 4 2 1 0 0 1 0 0 0 0 0 0 -0 0 0 0 0 0 0 0 0
0 0 0 0 0 0 0 0 0 0 0 0 0 0 1 1 1 2 1 1 3 4 4 5 4 0 0 0 0 0 0 0 0 0 0 -0 0 0 0 0 0 0 0
Wind_Speed_500mb
48 56 60 61 57 52 50 47 44 45 47 48 48 43 36 29 27 25 28 29 30 30 28 26 24 22 20 18 18 20 22 25 29 30 29 27 25 25 22 18 16 16 16
52 60 63 62 61 56 51 49 48 48 47 47 45 41 35 31 29 30 31 31 30 30 29 27 25 24 23 21 20 20 21 21 19 19 21 23 27 29 29 25 20 18 15
56 61 63 62 61 58 54 50 51 50 50 49 45 43 40 36 36 35 34 34 32 30 29 26 24 23 22 20 20 20 19 17 15 15 18 21 24 26 28 31 27 21 15
56 62 63 64 61 56 54 52 53 53 51 51 49 47 44 42 40 38 35 33 31 29 27 25 23 22 21 18 16 14 13 11 10 11 13 15 19 22 24 32 29 25 21
58 60 61 62 61 57 52 52 55 55 55 57 57 54 50 45 41 38 35 32 29 27 23 21 18 17 16 14 12 9 7 6 4 5 9 14 16 20 24 26 31 26 23
52 56 59 61 60 57 53 53 55 57 60 61 61 58 51 46 42 37 33 30 26 24 21 18 14 13 12 9 8 5 3 1 4 7 12 14 12 13 19 23 29 29 24
53 55 59 62 62 61 58 58 58 58 58 58 58 55 51 46 41 37 32 27 23 21 19 16 12 9 8 7 6 4 2 4 7 11 13 15 14 14 13 17 25 28 28
38 55 61 62 63 64 64 63 61 60 58 57 55 51 47 45 40 35 31 26 21 18 15 12 9 6 4 6 6 7 6 6 9 13 14 17 18 15 13 16 19 26 29
43 51 62 66 65 66 67 65 63 61 59 57 55 51 47 43 39 35 30 25 21 15 11 7 4 1 3 5 7 8 9 10 9 13 16 17 15 16 16 18 20 22 25
51 53 60 67 69 69 69 68 65 61 59 57 55 52 48 44 40 35 29 24 19 13 8 4 3 3 4 7 9 10 10 10 7 10 12 13 14 17 19 24 26 26 25
54 60 63 67 72 73 73 70 67 63 62 59 55 52 49 45 40 36 30 24 18 13 9 7 8 10 9 10 12 12 10 10 9 8 7 6 9 15 23 29 28 29 28
60 65 69 71 75 77 76 75 72 68 66 64 60 55 49 45 40 35 30 26 22 17 14 12 14 16 13 11 11 9 7 8 9 11 10 8 11 17 24 27 26 25 27
38 60 74 77 75 80 82 81 78 76 72 68 64 58 53 48 44 39 35 31 26 21 17 17 16 14 12 7 7 9 11 11 13 15 16 16 17 20 26 30 29 24 27
46 50 67 77 77 80 83 84 83 82 79 73 68 62 58 54 49 44 39 33 29 25 21 18 10 5 2 4 5 9 14 15 19 16 18 19 21 22 25 26 26 29 27
36 51 66 69 71 72 77 80 82 83 79 76 70 65 62 59 54 48 44 39 35 29 26 22 14 10 7 9 9 12 13 15 20 22 19 19 23 23 23 20 22 29 28
29 34 54 61 66 69 71 76 83 84 79 75 72 69 66 61 58 55 50 46 42 35 27 25 21 20 19 20 19 21 22 23 27 25 24 23 23 24 23 22 19 25 24
43 40 45 50 57 61 59 66 75 79 81 80 76 72 68 64 62 59 55 53 47 40 36 36 30 27 25 26 27 27 28 33 32 29 27 24 26 22 24 21 23 22 23
47 51 51 52 47 58 57 57 63 74 77 77 78 76 72 67 63 61 58 56 52 47 43 43 39 34 34 35 33 29 36 44 41 41 34 28 29 27 22 19 24 26 23
60 54 58 55 54 57 59 57 60 65 66 70 69 71 70 73 70 64 61 59 52 52 49 48 45 44 40 39 40 37 41 49 52 53 47 39 38 36 29 23 24 28 27
69 58 61 61 57 62 69 66 66 65 65 65 43 62 61 62 63 64 64 57 50 50 49 47 45 44 46 45 48 49 48 52 55 50 43 45 44 39 30 24 30 29 31
78 67 68 65 62 64 74 72 68 67 65 64 58 48 62 60 59 59 55 43 45 46 44 38 39 44 47 50 48 48 51 56 47 53 41 49 52 50 37 33 30 33 35
74 78 75 71 66 66 72 74 73 73 64 66 63 62 65 73 64 59 58 51 56 44 47 41 43 43 43 43 43 47 55 67 50 47 50 49 51 56 47 45 39 37 34
74 87 81 75 69 70 71 73 78 74 72 71 69 67 65 65 74 71 54 51 58 59 56 42 42 42 44 46 48 42 28 22 69 62 58 61 50 64 54 45 41 39 33
71 85 86 76 68 67 67 70 78 79 77 73 63 52 75 70 66 61 63 75 66 50 47 55 43 38 43 46 50 52 52 47 37 55 71 66 74 61 47 54 39 36 33
71 81 82 73 64 55 54 54 50 48 55 58 61 57 44 58 63 71 72 78 108 89 101 104 59 51 40 37 40 50 41 49 48 51 83 83 87 89 62 57 51 42 37
84 86 78 70 59 54 52 50 49 49 45 45 50 60 60 54 52 58 59 60 60 73 70 92 102 86 85 82 76 65 55 48 61 54 70 96 95 94 77 72 61 46 38
Wind_Direction_500mb
176 172 166 164 164 167 167 167 168 165 160 155 152 152 152 148 142 145 136 130 128 124 120 117 112 107 100 97 98 97 95 95 91 84 78 74 69 58 47 45 41 44 43
167 172 169 167 166 169 170 168 168 168 166 164 162 160 157 158 157 148 138 132 128 122 117 113 111 108 105 101 96 94 100 99 101 93 87 72 63 51 39 29 27 32 33
169 170 170 169 170 171 172 171 169 169 168 169 169 168 167 163 157 147 141 135 127 121 117 114 112 109 107 107 105 106 105 103 97 81 68 61 52 49 37 23 18 16 19
173 170 171 172 172 172 172 170 168 169 169 168 169 168 165 160 154 147 141 134 129 125 122 118 112 107 106 109 112 115 109 98 83 60 57 53 48 39 35 20 9 9 6
176 173 170 172 173 172 173 170 167 167 166 165 165 163 161 158 153 148 143 136 133 129 123 113 110 106 102 102 107 111 108 105 101 43 40 29 28 37 27 18 7 1 359
178 175 173 175 175 173 173 169 165 163 161 160 160 160 160 156 154 150 146 142 139 135 128 123 116 109 101 97 93 89 82 143 302 342 346 0 3 17 18 14 358 360 354
178 179 178 178 177 175 174 170 167 165 163 162 162 162 160 159 157 154 151 149 148 146 140 134 128 114 98 71 53 49 24 298 281 296 309 330 346 348 356 360 345 350 354
183 183 181 181 180 177 176 173 171 170 168 167 167 166 164 162 161 160 158 158 161 159 153 146 132 112 76 44 17 355 347 318 299 291 272 301 314 334 330 341 330 330 344
192 190 187 183 184 183 180 177 177 176 175 173 172 170 169 169 168 168 167 169 171 170 163 156 131 78 15 3 357 345 332 323 311 300 285 291 294 307 319 316 315 311 323
196 197 193 189 187 188 185 182 181 182 182 181 179 177 177 177 176 176 177 181 184 185 184 194 232 274 319 329 337 327 323 319 314 333 320 284 283 289 305 311 309 298 302
201 200 200 195 193 193 191 187 186 188 189 189 188 186 184 185 184 184 186 190 200 204 211 237 271 288 306 320 320 321 316 292 286 308 333 289 288 300 302 305 298 292 291
198 204 203 201 198 197 197 193 191 192 195 195 195 194 192 193 193 194 196 201 208 217 230 250 267 281 297 319 317 332 345 312 300 311 315 303 288 294 302 306 300 290 283
210 205 204 204 202 201 201 200 197 197 199 200 199 200 199 200 202 203 206 211 217 225 238 258 273 285 297 323 304 338 1 3 336 330 321 313 307 307 316 318 314 298 293
204 201 207 206 206 206 206 206 205 204 203 204 204 203 205 207 208 210 216 221 228 237 246 252 261 282 359 48 340 343 340 354 339 336 331 336 333 336 329 323 321 306 300
198 203 204 205 210 211 213 213 213 213 212 211 209 210 212 212 214 217 221 225 233 242 251 246 254 268 268 276 286 294 300 321 327 334 326 345 339 334 330 325 326 314 302
189 196 208 208 210 214 217 220 220 220 220 219 218 218 218 220 221 222 226 231 235 240 249 248 252 260 263 273 281 293 305 315 318 319 331 334 334 333 327 322 324 325 315
215 220 202 207 214 217 222 226 227 228 223 223 225 226 227 228 228 230 230 234 238 243 248 253 256 258 266 273 280 288 300 309 310 310 320 331 322 325 324 317 314 319 311
227 218 215 208 210 213 218 221 228 227 227 228 228 230 231 235 238 238 241 242 243 246 248 254 260 265 271 277 285 297 304 305 307 308 299 309 308 305 305 312 307 309 307
228 223 218 217 216 211 212 216 220 224 225 230 226 229 230 233 237 238 240 247 251 253 253 255 260 268 277 280 285 288 293 299 306 302 294 299 302 303 290 287 297 302 303
224 229 227 219 219 220 214 214 218 223 226 227 234 250 235 230 225 229 236 236 241 247 249 252 258 269 277 279 282 287 291 296 308 305 298 301 310 318 304 284 286 297 298
217 222 221 224 220 217 217 214 217 220 223 225 229 221 257 235 224 220 221 228 238 240 249 254 262 265 269 274 280 281 296 304 313 325 303 315 311 316 316 305 297 298 289
238 226 219 222 223 218 220 217 219 220 224 235 241 238 236 230 232 226 221 235 233 243 249 255 266 268 273 281 286 290 301 309 320 325 314 322 321 310 316 303 310 311 292
232 224 221 220 213 213 217 218 222 223 227 231 239 243 238 237 239 239 229 223 246 247 253 258 261 266 280 286 284 281 286 287 310 316 306 308 313 317 314 320 304 312 301
229 221 221 215 208 208 215 220 225 231 232 235 236 245 241 241 237 234 242 245 242 253 254 267 273 270 274 280 290 292 288 289 288 311 307 301 307 318 306 319 298 306 299
222 214 216 215 213 216 221 223 229 233 236 236 237 237 239 240 245 244 252 238 242 242 243 242 267 273 267 269 285 287 288 285 296 296 296 297 301 306 307 312 301 295 292
225 212 208 205 201 203 210 220 229 235 243 246 244 238 233 236 238 232 236 242 242 236 230 232 234 263 278 276 272 283 292 287 302 297 295 303 301 305 304 307 300 288 291
Wind_Speed_850mb
48 56 60 61 57 52 50 47 44 45 47 48 48 43 36 29 27 25 28 29 30 30 28 26 24 22 20 18 18 20 22 25 29 30 29 27 25 25 22 18 16 16 16
52 60 63 62 61 56 51 49 48 48 47 47 45 41 35 31 29 30 31 31 30 30 29 27 25 24 23 21 20 20 21 21 19 19 21 23 27 29 29 25 20 18 15
56 61 63 62 61 58 54 50 51 50 50 49 45 43 40 36 36 35 34 34 32 30 29 26 24 23 22 20 20 20 19 17 15 15 18 21 24 26 28 31 27 21 15
56 62 63 64 61 56 54 52 53 53 51 51 49 47 44 42 40 38 35 33 31 29 27 25 23 22 21 18 16 14 13 11 10 11 13 15 19 22 24 32 29 25 21
58 60 61 62 61 57 52 52 55 55 55 57 57 54 50 45 41 38 35 32 29 27 23 21 18 17 16 14 12 9 7 6 4 5 9 14 16 20 24 26 31 26 23
52 56 59 61 60 57 53 53 55 57 60 61 61 58 51 46 42 37 33 30 26 24 21 18 14 13 12 9 8 5 3 1 4 7 12 14 12 13 19 23 29 29 24
53 55 59 62 62 61 58 58 58 58 58 58 58 55 51 46 41 37 32 27 23 21 19 16 12 9 8 7 6 4 2 4 7 11 13 15 14 14 13 17 25 28 28
38 55 61 62 63 64 64 63 61 60 58 57 55 51 47 45 40 35 31 26 21 18 15 12 9 6 4 6 6 7 6 6 9 13 14 17 18 15 13 16 19 26 29
43 51 62 66 65 66 67 65 63 61 59 57 55 51 47 43 39 35 30 25 21 15 11 7 4 1 3 5 7 8 9 10 9 13 16 17 15 16 16 18 20 22 25
51 53 60 67 69 69 69 68 65 61 59 57 55 52 48 44 40 35 29 24 19 13 8 4 3 3 4 7 9 10 10 10 7 10 12 13 14 17 19 24 26 26 25
54 60 63 67 72 73 73 70 67 63 62 59 55 52 49 45 40 36 30 24 18 13 9 7 8 10 9 10 12 12 10 10 9 8 7 6 9 15 23 29 28 29 28
60 65 69 71 75 77 76 75 72 68 66 64 60 55 49 45 40 35 30 26 22 17 14 12 14 16 13 11 11 9 7 8 9 11 10 8 11 17 24 27 26 25 27
38 60 74 77 75 80 82 81 78 76 72 68 64 58 53 48 44 39 35 31 26 21 17 17 16 14 12 7 7 9 11 11 13 15 16 16 17 20 26 30 29 24 27
46 50 67 77 77 80 83 84 83 82 79 73 68 62 58 54 49 44 39 33 29 25 21 18 10 5 2 4 5 9 14 15 19 16 18 19 21 22 25 26 26 29 27
36 51 66 69 71 72 77 80 82 83 79 76 70 65 62 59 54 48 44 39 35 29 26 22 14 10 7 9 9 12 13 15 20 22 19 19 23 23 23 20 22 29 28
29 34 54 61 66 69 71 76 83 84 79 75 72 69 66 61 58 55 50 46 42 35 27 25 21 20 19 20 19 21 22 23 27 25 24 23 23 24 23 22 19 25 24
43 40 45 50 57 61 59 66 75 79 81 80 76 72 68 64 62 59 55 53 47 40 36 36 30 27 25 26 27 27 28 33 32 29 27 24 26 22 24 21 23 22 23
47 51 51 52 47 58 57 57 63 74 77 77 78 76 72 67 63 61 58 56 52 47 43 43 39 34 34 35 33 29 36 44 41 41 34 28 29 27 22 19 24 26 23
60 54 58 55 54 57 59 57 60 65 66 70 69 71 70 73 70 64 61 59 52 52 49 48 45 44 40 39 40 37 41 49 52 53 47 39 38 36 29 23 24 28 27
69 58 61 61 57 62 69 66 66 65 65 65 43 62 61 62 63 64 64 57 50 50 49 47 45 44 46 45 48 49 48 52 55 50 43 45 44 39 30 24 30 29 31
78 67 68 65 62 64 74 72 68 67 65 64 58 48 62 60 59 59 55 43 45 46 44 38 39 44 47 50 48 48 51 56 47 53 41 49 52 50 37 33 30 33 35
74 78 75 71 66 66 72 74 73 73 64 66 63 62 65 73 64 59 58 51 56 44 47 41 43 43 43 43 43 47 55 67 50 47 50 49 51 56 47 45 39 37 34
74 87 81 75 69 70 71 73 78 74 72 71 69 67 65 65 74 71 54 51 58 59 56 42 42 42 44 46 48 42 28 22 69 62 58 61 50 64 54 45 41 39 33
71 85 86 76 68 67 67 70 78 79 77 73 63 52 75 70 66 61 63 75 66 50 47 55 43 38 43 46 50 52 52 47 37 55 71 66 74 61 47 54 39 36 33
71 81 82 73 64 55 54 54 50 48 55 58 61 57 44 58 63 71 72 78 108 89 101 104 59 51 40 37 40 50 41 49 48 51 83 83 87 89 62 57 51 42 37
84 86 78 70 59 54 52 50 49 49 45 45 50 60 60 54 52 58 59 60 60 73 70 92 102 86 85 82 76 65 55 48 61 54 70 96 95 94 77 72 61 46 38
Wind_Direction_850mb
176 172 166 164 164 167 167 167 168 165 160 155 152 152 152 148 142 145 136 130 128 124 120 117 112 107 100 97 98 97 95 95 91 84 78 74 69 58 47 45 41 44 43
167 172 169 167 166 169 170 168 168 168 166 164 162 160 157 158 157 148 138 132 128 122 117 113 111 108 105 101 96 94 100 99 101 93 87 72 63 51 39 29 27 32 33
169 170 170 169 170 171 172 171 169 169 168 169 169 168 167 163 157 147 141 135 127 121 117 114 112 109 107 107 105 106 105 103 97 81 68 61 52 49 37 23 18 16 19
173 170 171 172 172 172 172 170 168 169 169 168 169 168 165 160 154 147 141 134 129 125 122 118 112 107 106 109 112 115 109 98 83 60 57 53 48 39 35 20 9 9 6
176 173 170 172 173 172 173 170 167 167 166 165 165 163 161 158 153 148 143 136 133 129 123 113 110 106 102 102 107 111 108 105 101 43 40 29 28 37 27 18 7 1 359
178 175 173 175 175 173 173 169 165 163 161 160 160 160 160 156 154 150 146 142 139 135 128 123 116 109 101 97 93 89 82 143 302 342 346 0 3 17 18 14 358 360 354
178 179 178 178 177 175 174 170 167 165 163 162 162 162 160 159 157 154 151 149 148 146 140 134 128 114 98 71 53 49 24 298 281 296 309 330 346 348 356 360 345 350 354
183 183 181 181 180 177 176 173 171 170 168 167 167 166 164 162 161 160 158 158 161 159 153 146 132 112 76 44 17 355 347 318 299 291 272 301 314 334 330 341 330 330 344
192 190 187 183 184 183 180 177 177 176 175 173 172 170 169 169 168 168 167 169 171 170 163 156 131 78 15 3 357 345 332 323 311 300 285 291 294 307 319 316 315 311 323
196 197 193 189 187 188 185 182 181 182 182 181 179 177 177 177 176 176 177 181 184 185 184 194 232 274 319 329 337 327 323 319 314 333 320 284 283 289 305 311 309 298 302
201 200 200 195 193 193 191 187 186 188 189 189 188 186 184 185 184 184 186 190 200 204 211 237 271 288 306 320 320 321 316 292 286 308 333 289 288 300 302 305 298 292 291
198 204 203 201 198 197 197 193 191 192 195 195 195 194 192 193 193 194 196 201 208 217 230 250 267 281 297 319 317 332 345 312 300 311 315 303 288 294 302 306 300 290 283
210 205 204 204 202 201 201 200 197 197 199 200 199 200 199 200 202 203 206 211 217 225 238 258 273 285 297 323 304 338 1 3 336 330 321 313 307 307 316 318 314 298 293
204 201 207 206 206 206 206 206 205 204 203 204 204 203 205 207 208 210 216 221 228 237 246 252 261 282 359 48 340 343 340 354 339 336 331 336 333 336 329 323 321 306 300
198 203 204 205 210 211 213 213 213 213 212 211 209 210 212 212 214 217 221 225 233 242 251 246 254 268 268 276 286 294 300 321 327 334 326 345 339 334 330 325 326 314 302
189 196 208 208 210 214 217 220 220 220 220 219 218 218 218 220 221 222 226 231 235 240 249 248 252 260 263 273 281 293 305 315 318 319 331 334 334 333 327 322 324 325 315
215 220 202 207 214 217 222 226 227 228 223 223 225 226 227 228 228 230 230 234 238 243 248 253 256 258 266 273 280 288 300 309 310 310 320 331 322 325 324 317 314 319 311
227 218 215 208 210 213 218 221 228 227 227 228 228 230 231 235 238 238 241 242 243 246 248 254 260 265 271 277 285 297 304 305 307 308 299 309 308 305 305 312 307 309 307
228 223 218 217 216 211 212 216 220 224 225 230 226 229 230 233 237 238 240 247 251 253 253 255 260 268 277 280 285 288 293 299 306 302 294 299 302 303 290 287 297 302 303
224 229 227 219 219 220 214 214 218 223 226 227 234 250 235 230 225 229 236 236 241 247 249 252 258 269 277 279 282 287 291 296 308 305 298 301 310 318 304 284 286 297 298
217 222 221 224 220 217 217 214 217 220 223 225 229 221 257 235 224 220 221 228 238 240 249 254 262 265 269 274 280 281 296 304 313 325 303 315 311 316 316 305 297 298 289
238 226 219 222 223 218 220 217 219 220 224 235 241 238 236 230 232 226 221 235 233 243 249 255 266 268 273 281 286 290 301 309 320 325 314 322 321 310 316 303 310 311 292
232 224 221 220 213 213 217 218 222 223 227 231 239 243 238 237 239 239 229 223 246 247 253 258 261 266 280 286 284 281 286 287 310 316 306 308 313 317 314 320 304 312 301
229 221 221 215 208 208 215 220 225 231 232 235 236 245 241 241 237 234 242 245 242 253 254 267 273 270 274 280 290 292 288 289 288 311 307 301 307 318 306 319 298 306 299
222 214 216 215 213 216 221 223 229 233 236 236 237 237 239 240 245 244 252 238 242 242 243 242 267 273 267 269 285 287 288 285 296 296 296 297 301 306 307 312 301 295 292
225 212 208 205 201 203 210 220 229 235 243 246 244 238 233 236 238 232 236 242 242 236 230 232 234 263 278 276 272 283 292 287 302 297 295 303 301 305 304 307 300 288 291